Location: Holkham
(52.9500°N, 0.8167°E)
Time: 13:54:33
(UTC+00:00)

Cosmos 2278 - Visible Passes

Search period start: 14 February 2026 00:00
Search period end: 24 February 2026 00:00
Orbit: 840 x 849 km, 71.1° (Epoch: 13 February)

Date Brightness Start Highest point End Pass type
(mag) Time Alt. Az. Time Alt. Az. Time Alt. Az.
14 Feb 4.6 06:22:42 10° S 06:28:10 54° ESE 06:33:40 10° NE visible
15 Feb 4.6 06:08:29 10° S 06:13:56 53° ESE 06:19:25 10° NE visible
16 Feb 4.7 05:54:17 10° S 05:59:42 51° ESE 06:05:10 10° NE visible
17 Feb 4.7 05:40:04 10° S 05:45:29 50° ESE 05:50:55 10° NE visible
18 Feb 4.7 05:25:52 10° S 05:31:15 48° ESE 05:36:40 10° NE visible
19 Feb 4.7 05:11:40 10° S 05:17:01 47° ESE 05:22:24 10° NE visible
20 Feb 4.8 04:57:28 10° S 05:02:47 45° ESE 05:08:09 10° NE visible
21 Feb 4.8 04:43:16 10° S 04:48:34 44° ESE 04:53:53 10° NE visible
21 Feb 4.1 06:27:20 10° WSW 06:32:43 44° NW 06:38:08 10° NNE visible
22 Feb 4.8 04:29:04 10° S 04:34:20 42° ESE 04:39:38 10° NE visible
22 Feb 4.1 06:13:03 10° WSW 06:18:27 45° NW 06:23:53 10° NNE visible
23 Feb 4.8 04:15:20 12° S 04:20:06 41° ESE 04:25:22 10° NE visible
23 Feb 4.0 05:58:46 10° WSW 06:04:11 46° NW 06:09:40 10° NNE visible
